TimeCDT,TemperatureF,Dew PointF,Humidity,Sea Level PressureIn,VisibilityMPH,Wind Direction,Wind SpeedMPH,Gust SpeedMPH,PrecipitationIn,Events,Conditions,WindDirDegrees,DateUTC
12:15 AM,66.2,62.6,88,29.92,10.0,SSW,9.2,-,N/A,,Overcast,200,2013-10-16 05:15:00
12:35 AM,66.2,62.6,88,29.92,10.0,SW,10.4,-,N/A,,Overcast,220,2013-10-16 05:35:00
12:55 AM,66.2,62.6,88,29.92,10.0,SW,10.4,-,N/A,,Overcast,230,2013-10-16 05:55:00
1:15 AM,66.2,62.6,88,29.92,10.0,SW,8.1,-,N/A,,Overcast,220,2013-10-16 06:15:00
1:35 AM,66.2,62.6,88,29.92,10.0,SW,9.2,-,N/A,,Overcast,220,2013-10-16 06:35:00
1:55 AM,66.2,62.6,88,29.92,10.0,SW,10.4,-,N/A,,Overcast,220,2013-10-16 06:55:00
2:15 AM,66.2,62.6,88,29.92,10.0,SW,9.2,-,N/A,,Overcast,220,2013-10-16 07:15:00
2:35 AM,66.2,62.6,88,29.92,10.0,SW,9.2,-,N/A,,Overcast,220,2013-10-16 07:35:00
2:55 AM,64.4,60.8,88,29.94,5.0,NW,16.1,26.5,N/A,,Overcast,310,2013-10-16 07:55:00
3:15 AM,60.8,55.4,82,29.93,10.0,WNW,9.2,-,N/A,,Overcast,290,2013-10-16 08:15:00
3:35 AM,60.8,55.4,82,29.94,10.0,WNW,11.5,-,N/A,,Overcast,290,2013-10-16 08:35:00
3:55 AM,60.8,53.6,77,29.96,10.0,WNW,11.5,16.1,N/A,,Overcast,290,2013-10-16 08:55:00
4:15 AM,59.0,51.8,77,29.96,10.0,NW,12.7,-,N/A,,Overcast,310,2013-10-16 09:15:00
4:35 AM,59.0,51.8,77,29.95,10.0,NW,9.2,-,N/A,,Overcast,320,2013-10-16 09:35:00
4:55 AM,57.2,51.8,82,29.95,10.0,NW,8.1,-,N/A,,Mostly Cloudy,320,2013-10-16 09:55:00
5:15 AM,57.2,50.0,77,29.96,10.0,NW,8.1,-,N/A,,Overcast,310,2013-10-16 10:15:00
5:35 AM,57.2,50.0,77,29.96,10.0,NW,8.1,-,N/A,,Overcast,320,2013-10-16 10:35:00
5:55 AM,57.2,50.0,77,29.96,10.0,NW,5.8,-,N/A,,Overcast,320,2013-10-16 10:55:00
6:15 AM,57.2,50.0,77,29.97,10.0,WNW,8.1,-,N/A,,Overcast,300,2013-10-16 11:15:00
6:35 AM,57.2,48.2,72,29.99,10.0,NW,4.6,-,N/A,,Overcast,320,2013-10-16 11:35:00
6:55 AM,57.2,48.2,72,29.98,10.0,NW,3.5,-,N/A,,Overcast,310,2013-10-16 11:55:00
7:15 AM,57.2,48.2,72,30.00,10.0,WNW,8.1,-,N/A,,Overcast,300,2013-10-16 12:15:00
7:35 AM,57.2,48.2,72,30.01,10.0,NW,8.1,-,N/A,,Overcast,310,2013-10-16 12:35:00
7:55 AM,57.2,48.2,72,30.02,10.0,NW,8.1,-,N/A,,Overcast,310,2013-10-16 12:55:00
8:15 AM,55.4,46.4,72,30.00,10.0,NNW,6.9,-,N/A,,Mostly Cloudy,330,2013-10-16 13:15:00
8:35 AM,55.4,46.4,72,30.01,10.0,NW,5.8,-,N/A,,Scattered Clouds,310,2013-10-16 13:35:00
8:55 AM,55.4,46.4,72,30.01,10.0,NW,5.8,-,N/A,,Overcast,320,2013-10-16 13:55:00
9:15 AM,55.4,44.6,67,30.01,10.0,NNW,6.9,-,N/A,,Overcast,330,2013-10-16 14:15:00
9:35 AM,55.4,44.6,67,30.01,10.0,North,4.6,-,N/A,,Overcast,350,2013-10-16 14:35:00
9:55 AM,57.2,44.6,63,30.01,10.0,North,5.8,-,N/A,,Overcast,350,2013-10-16 14:55:00
10:15 AM,57.2,44.6,63,30.01,10.0,NNW,6.9,-,N/A,,Overcast,330,2013-10-16 15:15:00
10:35 AM,57.2,44.6,63,30.01,10.0,WNW,3.5,-,N/A,,Overcast,290,2013-10-16 15:35:00
10:55 AM,57.2,44.6,63,30.01,10.0,Calm,Calm,-,N/A,,Overcast,0,2013-10-16 15:55:00
11:15 AM,59.0,46.4,63,30.01,10.0,WNW,5.8,-,N/A,,Overcast,290,2013-10-16 16:15:00
11:35 AM,59.0,46.4,63,30.01,10.0,WNW,6.9,-,N/A,,Overcast,290,2013-10-16 16:35:00
11:55 AM,59.0,46.4,63,30.01,10.0,WNW,10.4,-,N/A,,Overcast,290,2013-10-16 16:55:00
12:15 PM,57.2,44.6,63,30.01,10.0,West,8.1,-,N/A,,Overcast,280,2013-10-16 17:15:00
12:35 PM,57.2,44.6,63,30.01,10.0,West,8.1,-,N/A,,Overcast,280,2013-10-16 17:35:00
12:55 PM,57.2,44.6,63,30.00,10.0,WNW,11.5,-,N/A,,Overcast,290,2013-10-16 17:55:00
1:15 PM,57.2,44.6,63,29.99,10.0,NW,4.6,-,N/A,,Overcast,320,2013-10-16 18:15:00
1:35 PM,57.2,44.6,63,29.98,10.0,WNW,6.9,-,N/A,,Overcast,290,2013-10-16 18:35:00
1:55 PM,57.2,44.6,63,29.98,10.0,West,4.6,-,N/A,,Overcast,280,2013-10-16 18:55:00
2:15 PM,59.0,44.6,59,29.98,10.0,West,4.6,-,N/A,,Overcast,270,2013-10-16 19:15:00
2:35 PM,59.0,44.6,59,29.98,10.0,WNW,6.9,-,N/A,,Overcast,300,2013-10-16 19:35:00
2:55 PM,60.8,46.4,59,29.98,10.0,WNW,4.6,-,N/A,,Overcast,290,2013-10-16 19:55:00
3:15 PM,60.8,44.6,55,29.97,10.0,NW,6.9,-,N/A,,Mostly Cloudy,320,2013-10-16 20:15:00
3:35 PM,62.6,44.6,52,29.97,10.0,NW,3.5,-,N/A,,Scattered Clouds,310,2013-10-16 20:35:00
3:55 PM,60.8,44.6,55,29.97,10.0,West,4.6,-,N/A,,Clear,270,2013-10-16 20:55:00
4:15 PM,60.8,44.6,55,29.96,10.0,NNW,4.6,-,N/A,,Clear,340,2013-10-16 21:15:00
4:35 PM,62.6,42.8,48,29.96,10.0,Calm,Calm,-,N/A,,Clear,0,2013-10-16 21:35:00
4:55 PM,60.8,44.6,55,29.95,10.0,Calm,Calm,-,N/A,,Clear,0,2013-10-16 21:55:00
5:15 PM,62.6,44.6,52,29.95,10.0,West,3.5,-,N/A,,Clear,260,2013-10-16 22:15:00
5:35 PM,62.6,44.6,52,29.96,10.0,SW,3.5,-,N/A,,Clear,220,2013-10-16 22:35:00
5:55 PM,62.6,44.6,52,29.96,10.0,Calm,Calm,-,N/A,,Clear,0,2013-10-16 22:55:00
6:15 PM,57.2,44.6,63,29.96,10.0,SSW,3.5,-,N/A,,Clear,200,2013-10-16 23:15:00
6:35 PM,53.6,44.6,72,29.96,10.0,South,3.5,-,N/A,,Clear,190,2013-10-16 23:35:00
6:55 PM,53.6,44.6,72,29.97,10.0,Calm,Calm,-,N/A,,Clear,0,2013-10-16 23:55:00
7:15 PM,51.8,44.6,76,29.97,10.0,Calm,Calm,-,N/A,,Clear,0,2013-10-17 00:15:00
7:35 PM,48.2,44.6,87,29.97,10.0,Calm,Calm,-,N/A,,Clear,0,2013-10-17 00:35:00
7:55 PM,50.0,44.6,82,29.97,10.0,SW,3.5,-,N/A,,Clear,220,2013-10-17 00:55:00
8:15 PM,48.2,44.6,87,29.98,10.0,Calm,Calm,-,N/A,,Clear,0,2013-10-17 01:15:00
8:35 PM,48.2,44.6,87,29.98,10.0,Calm,Calm,-,N/A,,Clear,0,2013-10-17 01:35:00
8:55 PM,46.4,42.8,87,29.98,10.0,Calm,Calm,-,N/A,,Clear,0,2013-10-17 01:55:00
9:15 PM,46.4,44.6,93,29.98,10.0,Calm,Calm,-,N/A,,Clear,0,2013-10-17 02:15:00
9:35 PM,46.4,42.8,87,29.99,10.0,WNW,3.5,-,N/A,,Clear,290,2013-10-17 02:35:00
9:55 PM,44.6,41.0,87,29.99,10.0,Calm,Calm,-,N/A,,Clear,0,2013-10-17 02:55:00
10:15 PM,46.4,42.8,87,29.99,10.0,Calm,Calm,-,N/A,,Clear,0,2013-10-17 03:15:00
10:35 PM,44.6,42.8,93,29.99,2.0,West,3.5,-,N/A,,Clear,260,2013-10-17 03:35:00
10:55 PM,44.6,42.8,93,29.99,9.0,Calm,Calm,-,N/A,,Clear,0,2013-10-17 03:55:00
11:15 PM,46.4,42.8,87,29.99,10.0,NW,4.6,-,N/A,,Clear,320,2013-10-17 04:15:00
11:35 PM,50.0,44.6,82,29.99,10.0,North,3.5,-,N/A,,Clear,350,2013-10-17 04:35:00
11:55 PM,51.8,44.6,76,29.98,10.0,North,6.9,-,N/A,,Clear,10,2013-10-17 04:55:00